CST,Max TemperatureF,Mean TemperatureF,Min TemperatureF,Max Dew PointF,MeanDew PointF,Min DewpointF,Max Humidity, Mean Humidity, Min Humidity, Max Sea Level PressureIn, Mean Sea Level PressureIn, Min Sea Level PressureIn, Max VisibilityMiles, Mean VisibilityMiles, Min VisibilityMiles, Max Wind SpeedMPH, Mean Wind SpeedMPH, Max Gust SpeedMPH,PrecipitationIn, CloudCover, Events, WindDirDegrees
2013-12-1,59,47,35,45,39,28,82,70,55,30.16,30.04,29.88,10,9,3,6,1,,0.00,6,,15
2013-12-2,64,50,37,45,39,30,82,70,45,29.87,29.76,29.66,10,6,0,7,1,,0.00,4,,43
2013-12-3,66,54,41,48,45,34,82,73,52,29.70,29.65,29.58,10,5,0,12,3,20,0.00,7,,128
2013-12-4,69,56,42,52,44,32,82,65,43,29.91,29.68,29.61,10,7,0,15,6,21,0.00,4,,189
2013-12-5,42,33,24,30,20,16,74,67,55,30.23,30.12,29.91,10,7,1,14,8,26,0.00,8,,324
2013-12-6,24,22,19,16,12,5,80,69,54,30.53,30.33,30.20,10,4,0,0,0,,0.00,8,,-1
2013-12-7,21,16,10,9,4,-2,62,54,49,30.65,30.52,30.35,10,10,10,,,,0.00,2,,-1
2013-12-8,30,24,17,21,15,7,80,72,54,30.34,30.14,30.01,10,7,2,,,,0.00,8,,-1
2013-12-9,32,28,24,21,16,10,69,60,51,30.30,30.23,30.14,10,10,10,12,7,17,0.00,7,,341
2013-12-10,37,27,17,18,14,9,80,61,36,30.41,30.33,30.27,10,10,7,10,4,16,0.00,2,,247
2013-12-11,39,26,14,25,14,7,86,61,41,30.61,30.45,30.29,10,8,0,12,3,16,0.00,0,,341
2013-12-12,42,26,10,18,11,3,79,56,31,30.61,30.49,30.29,10,10,4,6,1,91,0.00,0,,114
2013-12-13,35,28,21,28,25,12,81,76,64,30.26,30.02,29.87,10,7,2,7,2,,0.00,7,,103
2013-12-14,37,34,30,30,26,19,81,74,64,30.21,29.99,29.82,10,7,1,17,7,25,0.00,8,,315
2013-12-15,48,36,24,27,22,16,74,59,40,30.24,30.17,30.10,10,10,5,12,5,16,0.00,2,,240
2013-12-16,64,50,35,32,27,23,61,45,27,30.11,30.07,30.03,10,10,10,13,2,,0.00,0,,235
2013-12-17,57,42,26,36,26,21,80,57,33,30.30,30.21,30.11,10,10,10,14,2,22,0.00,0,,325
2013-12-18,60,42,24,36,28,18,80,56,33,30.30,30.15,29.98,10,10,0,13,3,21,0.00,0,,169
2013-12-19,59,54,50,48,42,36,72,61,51,29.98,29.89,29.77,10,10,10,12,7,20,0.00,4,,168
2013-12-20,69,54,39,55,46,32,82,72,60,29.87,29.80,29.76,10,9,3,12,6,17,0.00,6,,232
2013-12-21,42,40,37,36,33,30,81,79,75,29.77,29.66,29.48,10,7,0,13,4,21,0.00,7,Thunderstorm,340
2013-12-22,39,34,30,36,25,18,87,69,60,30.31,30.00,29.67,10,8,0,16,6,22,0.00,8,,300
2013-12-23,33,27,21,19,15,10,74,60,44,30.56,30.47,30.31,10,9,3,13,9,17,0.00,4,,322
2013-12-24,35,26,17,16,11,7,73,58,41,30.58,30.47,30.34,10,10,10,10,6,,0.00,3,,89
2013-12-25,48,36,23,30,22,12,80,63,46,30.38,30.32,30.27,10,10,5,12,3,,0.00,2,,311
2013-12-26,51,37,23,27,22,16,80,59,30,30.42,30.36,30.31,10,8,0,8,2,,0.00,0,,191
2013-12-27,57,39,21,28,23,16,80,55,29,30.43,30.36,30.31,10,10,0,7,1,,0.00,0,,193
2013-12-28,51,38,24,30,24,18,75,59,43,30.31,30.13,29.95,10,10,10,6,1,,0.00,1,,124
2013-12-29,44,34,24,34,22,10,75,63,54,30.25,30.08,29.92,10,10,10,17,4,23,0.00,6,,328
2013-12-30,35,27,19,14,11,7,63,53,38,30.32,30.26,30.21,10,10,10,8,3,,0.00,0,,30
2013-12-31,55,38,21,25,18,12,74,51,24,30.39,30.30,30.20,10,10,10,10,2,17,0.00,0,,152